Location: Newark
(43.0000°N, 1.6781°W)
Time: 09:48:37
(UTC+00:00)

deb Explorer IX - Visible Passes

Search period start: 07 October 2022 00:00
Search period end: 17 October 2022 00:00
Orbit: 532 x 1063 km, 38.8° (Epoch: 06 October)

Date Brightness Start Highest point End Pass type
(mag) Time Alt. Az. Time Alt. Az. Time Alt. Az.
07 Oct ? 04:54:26 13° SW 04:57:48 31° SSE 05:02:13 10° E visible
08 Oct ? 04:25:39 22° SSW 04:27:16 28° SSE 04:31:23 10° E visible
09 Oct ? 03:56:47 26° SSE 03:56:47 26° SSE 04:00:32 10° E visible
09 Oct ? 05:38:06 10° WSW 05:42:25 50° S 05:47:23 10° E visible
10 Oct ? 03:27:50 19° ESE 03:27:50 19° ESE 03:29:41 10° ESE visible
10 Oct ? 05:08:38 17° WSW 05:11:47 48° S 05:16:32 10° E visible
11 Oct ? 04:39:38 32° SW 04:41:09 46° S 04:45:41 10° E visible
12 Oct ? 04:10:36 44° SSE 04:10:36 44° SSE 04:14:50 10° E visible
13 Oct ? 03:41:32 28° ESE 03:41:32 28° ESE 03:43:58 10° E visible
13 Oct ? 05:22:19 15° WSW 05:25:40 46° S 05:30:17 10° ESE visible
14 Oct ? 03:12:26 14° ESE 03:12:26 14° ESE 03:13:07 10° E visible
14 Oct ? 04:53:13 29° WSW 04:54:56 46° S 04:59:22 10° ESE visible
15 Oct ? 04:24:07 46° S 04:24:11 46° S 04:28:28 10° ESE visible
16 Oct ? 03:55:00 30° SE 03:55:00 30° SE 03:57:34 10° ESE visible
16 Oct ? 05:35:47 11° WSW 05:39:11 26° SSW 05:43:04 10° SE visible
